Location: Alincthun
(50.7310°N, 1.8022°E)
Time: 15:39:52
(UTC+00:00)

Cosmos 1980 - Pass Details

Date: 17 February 2020
Orbit: 838 x 848 km, 71.0° (Epoch: 27 March)

Event Time Altitude Azimuth Distance (km) Brightness Sun altitude
Exits shadow 04:51:08 35° 303° (WNW) 1,344 4.3 -21.3°
Maximum altitude 04:51:33 35° 313° (NW) 1,334 4.4 -21.3°
Drops below altitude 10° 04:56:46 10° 19° (NNE) 2,484 6.4 -20.5°
Sets 04:59:27 0° 28° (NNE) 3,424 7.3 -20.0°
